Weather in Sale

Australia     38°06′13″S   147°04′05″E
temp.,
°C
wind,
m/s
gust,
m/s
humid.,
%
clouds,
%
prec.,
mm/h
press.,
hPa
HPBL,
m
13 april, tue
tue1301:00+8ne12915 0.0 102112
04:00+7nne1192100 0.0 102011
07:00+7nne1188100 0.0 101915
10:00+13ene1261100 0.0 1018331
13:00+17e2249100 0.0 1016460
16:00+19sse1148100 0.0 1013349
19:00+13ene3367100 0.0 101353
22:00+15nne2257100 0.0 101134
14 april, wed
wed1401:00+15nne2354100 0.0 100942
04:00+15sse1347100 0.0 100884
07:00+16w3742100 0.0 1008212
10:00+18wnw6124683 0.0 10101511
13:00+21w8133976 0.0 10092596
16:00+19wsw8145090 0.0 10112200
19:00+14wsw510677 0.0 1013356
22:00+12wsw368111 0.0 1015125
15 april, thu
thu1501:00+11w37810 0.0 1014169
04:00+11w49758 0.0 1014205
07:00+9wnw36794 0.0 1015104
10:00+15nw5115397 0.0 10151419
13:00+19wsw81243100 0.0 10142258
16:00+17wsw7136035 0.0 10151605
19:00+13w510735 0.0 1018323
22:00+13wsw61180100 0.2 1020718
16 april, fri
fri1601:00+10wsw478723 0.2 1021180
04:00+9wsw378569 0.2 1022116
07:00+10wnw367589 0.0 1023175
10:00+15wsw45490 0.0 10241382
13:00+18wsw34410 0.0 10221540
16:00+18sw33420 0.0 10211199
19:00+10ene33740 0.0 102431
22:00+9nw22810 0.0 102415
17 april, sat
sat1701:00+7wnw22870 0.0 102314
04:00+6wnw22900 0.0 102315
07:00+6wnw22894 0.0 102418
10:00+13wsw35615 0.0 1024617
13:00+18sw564159 0.0 10211377
16:00+18sw4548100 0.0 10201112
19:00+12wsw2268100 0.0 102225
22:00+9nw228084 0.0 102116